SDM2212 UTAA-UGTB

Flight info

Callsign SDM2212
Flight time 1h 35m
Altitude 36000
Route MAM29D MAMED B449 INRAK A240 KRS B701 LARGI N701 BAKUV L850 ADEKI DCT LAMUS
Aircraft B77W/H-SDE1E2E3FGHIJ2J3J4J5M1RWXY/LB1D1

Departure

Time 2026-04-20 08:28
Airport Ashgabat International Airport (UTAA)

Arrival

Time 2026-04-20 10:03
Airport Tbilisi International Airport (UGTB)
Time Latitude Longitude Altitude Speed Heading
2026-04-20 08:15 37.98214 58.36853 683 ft 0 kts 33°
2026-04-20 08:22 37.98213 58.36852 683 ft 1 kts 33°
2026-04-20 08:22 37.98180 58.36824 683 ft 10 kts 31°
2026-04-20 08:22 37.98150 58.36799 683 ft 0 kts 83°
2026-04-20 08:23 37.98149 58.36781 677 ft 3 kts 91°
2026-04-20 08:23 37.98147 58.36786 683 ft 0 kts 112°
2026-04-20 08:23 37.98145 58.36790 683 ft 4 kts 117°
2026-04-20 08:24 37.98103 58.36871 678 ft 16 kts 121°
2026-04-20 08:24 37.98048 58.36993 681 ft 16 kts 120°
2026-04-20 08:24 37.97968 58.37085 682 ft 16 kts 159°
2026-04-20 08:24 37.97862 58.37124 680 ft 16 kts 164°
2026-04-20 08:25 37.97758 58.37170 680 ft 16 kts 150°
2026-04-20 08:25 37.97693 58.37282 682 ft 16 kts 119°
2026-04-20 08:25 37.97638 58.37404 683 ft 16 kts 120°
2026-04-20 08:25 37.97572 58.37490 679 ft 12 kts 162°
2026-04-20 08:26 37.97497 58.37461 682 ft 12 kts 210°
2026-04-20 08:26 37.97427 58.37410 681 ft 12 kts 210°
2026-04-20 08:26 37.97360 58.37361 680 ft 8 kts 210°
2026-04-20 08:26 37.97340 58.37299 682 ft 8 kts 281°
2026-04-20 08:27 37.97367 58.37236 683 ft 8 kts 300°
2026-04-20 08:27 37.97421 58.37114 679 ft 32 kts 299°
2026-04-20 08:27 37.97701 58.36485 681 ft 138 kts 300°
2026-04-20 08:27 37.98365 58.35054 906 ft 218 kts 302°
2026-04-20 08:28 37.99109 58.33392 2600 ft 208 kts 299°
2026-04-20 08:28 37.99783 58.31801 4152 ft 205 kts 300°
2026-04-20 08:28 38.00498 58.30176 4896 ft 217 kts 299°
2026-04-20 08:28 38.01266 58.28429 5381 ft 243 kts 299°
2026-04-20 08:29 38.02138 58.26494 6003 ft 260 kts 302°
2026-04-20 08:29 38.03144 58.24532 6850 ft 270 kts 303°
2026-04-20 08:29 38.04185 58.22502 7749 ft 278 kts 302°
2026-04-20 08:29 38.05250 58.20425 8706 ft 284 kts 302°
2026-04-20 08:30 38.06334 58.18307 9643 ft 288 kts 302°
2026-04-20 08:30 38.07431 58.16164 10600 ft 293 kts 301°
2026-04-20 08:30 38.08586 58.13908 11049 ft 318 kts 300°
2026-04-20 08:30 38.09841 58.11437 11274 ft 348 kts 300°
2026-04-20 08:31 38.11196 58.08773 11775 ft 366 kts 300°
2026-04-20 08:31 38.12596 58.06028 12654 ft 373 kts 299°
2026-04-20 08:31 38.13998 58.03282 13625 ft 377 kts 299°
2026-04-20 08:31 38.15432 58.00470 14611 ft 381 kts 298°
2026-04-20 08:32 38.16878 57.97630 15600 ft 384 kts 298°
2026-04-20 08:32 38.18339 57.94757 16543 ft 388 kts 298°
2026-04-20 08:32 38.19813 57.91856 17435 ft 393 kts 298°
2026-04-20 08:32 38.21305 57.88914 18262 ft 398 kts 297°
2026-04-20 08:33 38.22809 57.85946 19129 ft 401 kts 297°
2026-04-20 08:33 38.25862 57.79918 20701 ft 410 kts 298°
2026-04-20 08:33 38.27413 57.76849 21404 ft 415 kts 298°
2026-04-20 08:34 38.28981 57.73744 22142 ft 419 kts 298°
2026-04-20 08:34 38.30540 57.70653 22832 ft 422 kts 298°
2026-04-20 08:34 38.32134 57.67493 23500 ft 426 kts 298°
2026-04-20 08:34 38.33742 57.64298 24151 ft 430 kts 298°
2026-04-20 08:35 38.35364 57.61075 24794 ft 433 kts 298°
2026-04-20 08:35 38.36992 57.57837 25466 ft 434 kts 298°
2026-04-20 08:35 38.38626 57.54584 26151 ft 435 kts 298°
2026-04-20 08:35 38.40260 57.51331 26818 ft 436 kts 298°
2026-04-20 08:36 38.41896 57.48066 27404 ft 437 kts 298°
2026-04-20 08:36 38.43535 57.44792 27948 ft 439 kts 297°
2026-04-20 08:36 38.45181 57.41496 28481 ft 441 kts 297°
2026-04-20 08:36 38.46835 57.38185 29000 ft 443 kts 297°
2026-04-20 08:37 38.48467 57.34918 29491 ft 443 kts 297°
2026-04-20 08:37 38.50122 57.31595 30000 ft 442 kts 297°
2026-04-20 08:37 38.51767 57.28293 30601 ft 438 kts 297°
2026-04-20 08:37 38.53398 57.25016 31141 ft 437 kts 297°
2026-04-20 08:38 38.55026 57.21742 31589 ft 436 kts 297°
2026-04-20 08:38 38.56652 57.18470 31989 ft 436 kts 297°
2026-04-20 08:38 38.58277 57.15196 32399 ft 436 kts 296°
2026-04-20 08:38 38.59899 57.11924 32845 ft 434 kts 296°
2026-04-20 08:39 38.61514 57.08663 33286 ft 433 kts 296°
2026-04-20 08:39 38.63125 57.05405 33641 ft 434 kts 296°
2026-04-20 08:39 38.64735 57.02146 34004 ft 433 kts 296°
2026-04-20 08:39 38.66340 56.98892 34406 ft 432 kts 296°
2026-04-20 08:40 38.67926 56.95676 34760 ft 431 kts 296°
2026-04-20 08:40 38.69526 56.92423 35070 ft 432 kts 296°
2026-04-20 08:40 38.71128 56.89164 35345 ft 432 kts 296°
2026-04-20 08:40 38.72729 56.85906 35636 ft 433 kts 296°
2026-04-20 08:41 38.74334 56.82638 35802 ft 436 kts 296°
2026-04-20 08:41 38.77577 56.76015 35903 ft 441 kts 296°
2026-04-20 08:42 38.80865 56.69292 35889 ft 448 kts 296°
2026-04-20 08:42 38.84167 56.62532 35881 ft 451 kts 296°
2026-04-20 08:43 38.87502 56.55689 35874 ft 452 kts 296°
2026-04-20 08:43 38.90838 56.48829 35877 ft 452 kts 296°
2026-04-20 08:44 38.94164 56.41973 35872 ft 451 kts 296°
2026-04-20 08:44 38.97468 56.35147 35869 ft 449 kts 296°
2026-04-20 08:45 39.00674 56.28285 35861 ft 445 kts 292°
2026-04-20 08:45 39.03422 56.21220 35866 ft 444 kts 291°
2026-04-20 08:46 39.06170 56.14093 35866 ft 445 kts 291°
2026-04-20 08:46 39.08934 56.06953 35870 ft 446 kts 291°
2026-04-20 08:47 39.11690 55.99838 35864 ft 447 kts 291°
2026-04-20 08:47 39.14465 55.92660 35853 ft 449 kts 291°
2026-04-20 08:48 39.17271 55.85374 35858 ft 457 kts 291°
2026-04-20 08:48 39.20118 55.77971 35842 ft 462 kts 291°
2026-04-20 08:49 39.22980 55.70518 35847 ft 465 kts 291°
2026-04-20 08:49 39.25843 55.63040 35838 ft 465 kts 291°
2026-04-20 08:50 39.28645 55.55572 35841 ft 462 kts 289°
2026-04-20 08:50 39.31055 55.47892 35840 ft 459 kts 287°
2026-04-20 08:51 39.33393 55.40228 35837 ft 458 kts 287°
2026-04-20 08:51 39.35733 55.32581 35823 ft 457 kts 287°
2026-04-20 08:52 39.37684 55.26225 35824 ft 457 kts 287°
2026-04-20 08:52 39.40025 55.18592 35824 ft 456 kts 287°
2026-04-20 08:53 39.42361 55.10952 35824 ft 457 kts 287°
2026-04-20 08:53 39.44690 55.03327 35816 ft 452 kts 287°
2026-04-20 08:54 39.46993 54.95748 35831 ft 454 kts 287°
2026-04-20 08:54 39.49292 54.88149 35838 ft 459 kts 287°
2026-04-20 08:55 39.51625 54.80442 35834 ft 459 kts 287°
2026-04-20 08:55 39.53951 54.72742 35831 ft 457 kts 287°
2026-04-20 08:56 39.56259 54.65057 35826 ft 457 kts 287°
2026-04-20 08:56 39.58568 54.57368 35841 ft 458 kts 287°
2026-04-20 08:57 39.60862 54.49698 35833 ft 458 kts 286°
2026-04-20 08:57 39.63165 54.41957 35832 ft 460 kts 287°
2026-04-20 08:58 39.65470 54.34200 35829 ft 461 kts 286°
2026-04-20 08:58 39.67774 54.26433 35835 ft 461 kts 286°
2026-04-20 08:59 39.70076 54.18653 35829 ft 461 kts 286°
2026-04-20 08:59 39.72352 54.10919 35834 ft 462 kts 286°
2026-04-20 09:00 39.74647 54.03107 35837 ft 462 kts 286°
2026-04-20 09:00 39.76938 53.95291 35829 ft 463 kts 286°
2026-04-20 09:01 39.79225 53.87466 35837 ft 463 kts 286°
2026-04-20 09:01 39.81485 53.79719 35833 ft 446 kts 285°
2026-04-20 09:02 39.83653 53.72270 35832 ft 438 kts 285°
2026-04-20 09:02 39.85803 53.64818 35850 ft 441 kts 285°
2026-04-20 09:03 39.87955 53.57353 35846 ft 444 kts 285°
2026-04-20 09:03 39.90131 53.49794 35842 ft 446 kts 285°
2026-04-20 09:04 39.92308 53.42214 35859 ft 447 kts 285°
2026-04-20 09:04 39.94469 53.34664 35853 ft 447 kts 285°
2026-04-20 09:05 39.96635 53.27081 35846 ft 446 kts 285°
2026-04-20 09:05 39.98787 53.19518 35853 ft 444 kts 285°
2026-04-20 09:06 40.00932 53.11954 35869 ft 444 kts 285°
2026-04-20 09:06 40.03074 53.04384 35861 ft 446 kts 285°
2026-04-20 09:07 40.04776 52.96622 35869 ft 444 kts 277°
2026-04-20 09:07 40.05997 52.88733 35873 ft 447 kts 277°
2026-04-20 09:08 40.07235 52.80760 35867 ft 448 kts 277°
2026-04-20 09:08 40.08490 52.72746 35865 ft 450 kts 277°
2026-04-20 09:09 40.09748 52.64730 35854 ft 450 kts 277°
2026-04-20 09:09 40.10993 52.56760 35864 ft 449 kts 277°
2026-04-20 09:10 40.12235 52.48768 35864 ft 448 kts 277°
2026-04-20 09:10 40.13467 52.40801 35853 ft 446 kts 277°
2026-04-20 09:11 40.14689 52.32861 35854 ft 445 kts 277°
2026-04-20 09:11 40.15903 52.24922 35860 ft 445 kts 277°
2026-04-20 09:12 40.17105 52.17039 35855 ft 444 kts 277°
2026-04-20 09:12 40.18306 52.09112 35863 ft 444 kts 277°
2026-04-20 09:13 40.19502 52.01189 35876 ft 444 kts 277°
2026-04-20 09:13 40.20691 51.93267 35861 ft 444 kts 277°
2026-04-20 09:14 40.21876 51.85333 35864 ft 444 kts 277°
2026-04-20 09:14 40.23056 51.77396 35879 ft 444 kts 277°
2026-04-20 09:15 40.24234 51.69445 35883 ft 445 kts 277°
2026-04-20 09:15 40.25407 51.61471 35882 ft 446 kts 277°
2026-04-20 09:16 40.26579 51.53475 35891 ft 447 kts 277°
2026-04-20 09:16 40.27739 51.45521 35890 ft 448 kts 277°
2026-04-20 09:17 40.28905 51.37490 35888 ft 449 kts 277°
2026-04-20 09:17 40.30071 51.29433 35895 ft 450 kts 277°
2026-04-20 09:18 40.31233 51.21364 35899 ft 451 kts 277°
2026-04-20 09:18 40.32392 51.13271 35897 ft 451 kts 277°
2026-04-20 09:19 40.33541 51.05210 35899 ft 452 kts 277°
2026-04-20 09:19 40.34689 50.97096 35901 ft 453 kts 277°
2026-04-20 09:20 40.35834 50.88976 35907 ft 453 kts 277°
2026-04-20 09:20 40.36973 50.80846 35908 ft 453 kts 277°
2026-04-20 09:21 40.38098 50.72781 35908 ft 454 kts 276°
2026-04-20 09:21 40.39228 50.64640 35907 ft 453 kts 276°
2026-04-20 09:22 40.40334 50.56618 35909 ft 453 kts 276°
2026-04-20 09:22 40.41449 50.48498 35907 ft 452 kts 276°
2026-04-20 09:23 40.42546 50.40454 35907 ft 452 kts 276°
2026-04-20 09:23 40.43648 50.32338 35908 ft 451 kts 276°
2026-04-20 09:24 40.44745 50.24209 35909 ft 451 kts 276°
2026-04-20 09:24 40.45828 50.16146 35915 ft 451 kts 276°
2026-04-20 09:25 40.46962 50.08041 35918 ft 452 kts 279°
2026-04-20 09:25 40.48862 50.00197 35917 ft 458 kts 288°
2026-04-20 09:26 40.51409 49.92611 35919 ft 459 kts 289°
2026-04-20 09:26 40.54001 49.84912 35913 ft 460 kts 289°
2026-04-20 09:27 40.56545 49.77240 35920 ft 461 kts 289°
2026-04-20 09:27 40.59102 49.69477 35914 ft 462 kts 289°
2026-04-20 09:28 40.61663 49.61695 35919 ft 463 kts 288°
2026-04-20 09:28 40.64183 49.53920 35907 ft 463 kts 287°
2026-04-20 09:29 40.66537 49.46024 35907 ft 463 kts 287°
2026-04-20 09:29 40.68868 49.38103 35912 ft 463 kts 287°
2026-04-20 09:30 40.71225 49.30177 35908 ft 465 kts 287°
2026-04-20 09:30 40.73534 49.22204 35895 ft 464 kts 285°
2026-04-20 09:31 40.75563 49.14117 35893 ft 464 kts 283°
2026-04-20 09:31 40.77529 49.06048 35895 ft 465 kts 283°
2026-04-20 09:32 40.79521 48.97918 35897 ft 465 kts 284°
2026-04-20 09:32 40.81519 48.89786 35894 ft 465 kts 284°
2026-04-20 09:33 40.83513 48.81654 35901 ft 466 kts 283°
2026-04-20 09:33 40.85500 48.73519 35921 ft 465 kts 283°
2026-04-20 09:34 40.87488 48.65372 35925 ft 466 kts 283°
2026-04-20 09:34 40.90447 48.53180 35934 ft 466 kts 283°
2026-04-20 09:35 40.92421 48.44994 35932 ft 467 kts 283°
2026-04-20 09:35 40.94375 48.36852 35926 ft 467 kts 283°
2026-04-20 09:36 40.96344 48.28656 35932 ft 468 kts 283°
2026-04-20 09:36 40.98310 48.20433 35922 ft 469 kts 283°
2026-04-20 09:37 40.99938 48.13588 35917 ft 469 kts 283°
2026-04-20 09:37 41.01892 48.05351 35917 ft 468 kts 283°
2026-04-20 09:38 41.04160 47.95766 35912 ft 469 kts 283°
2026-04-20 09:38 41.05788 47.88851 35916 ft 469 kts 283°
2026-04-20 09:39 41.07626 47.80546 35929 ft 470 kts 282°
2026-04-20 09:39 41.09383 47.72225 35929 ft 471 kts 281°
2026-04-20 09:40 41.11155 47.63839 35923 ft 473 kts 282°
2026-04-20 09:40 41.12939 47.55444 35923 ft 473 kts 282°
2026-04-20 09:41 41.14718 47.47059 35924 ft 466 kts 282°
2026-04-20 09:41 41.15591 47.42943 35309 ft 465 kts 282°
2026-04-20 09:41 41.16462 47.38810 34584 ft 463 kts 281°
2026-04-20 09:42 41.17328 47.34699 33745 ft 463 kts 282°
2026-04-20 09:42 41.18189 47.30600 33175 ft 457 kts 282°
2026-04-20 09:42 41.19038 47.26554 32592 ft 453 kts 282°
2026-04-20 09:42 41.19880 47.22530 32023 ft 451 kts 282°
2026-04-20 09:43 41.20716 47.18528 31467 ft 449 kts 282°
2026-04-20 09:43 41.21549 47.14538 30917 ft 448 kts 282°
2026-04-20 09:43 41.22379 47.10551 30361 ft 447 kts 282°
2026-04-20 09:43 41.23205 47.06576 29809 ft 446 kts 282°
2026-04-20 09:44 41.24017 47.02663 29258 ft 444 kts 282°
2026-04-20 09:44 41.24833 46.98712 28684 ft 443 kts 282°
2026-04-20 09:44 41.25648 46.94763 28110 ft 441 kts 282°
2026-04-20 09:44 41.26457 46.90837 27538 ft 440 kts 282°
2026-04-20 09:45 41.27262 46.86920 26963 ft 438 kts 282°
2026-04-20 09:45 41.28063 46.83016 26388 ft 437 kts 282°
2026-04-20 09:45 41.28863 46.79120 25813 ft 435 kts 282°
2026-04-20 09:45 41.29657 46.75240 25241 ft 433 kts 282°
2026-04-20 09:46 41.30451 46.71377 24675 ft 431 kts 282°
2026-04-20 09:46 41.31246 46.67542 24105 ft 429 kts 282°
2026-04-20 09:46 41.32037 46.63725 23537 ft 427 kts 282°
2026-04-20 09:46 41.32812 46.59983 22987 ft 424 kts 282°
2026-04-20 09:47 41.33590 46.56208 22428 ft 421 kts 282°
2026-04-20 09:47 41.34364 46.52428 21875 ft 422 kts 282°
2026-04-20 09:47 41.35131 46.48678 21316 ft 418 kts 282°
2026-04-20 09:47 41.35888 46.44972 20763 ft 413 kts 282°
2026-04-20 09:48 41.36637 46.41298 20214 ft 408 kts 282°
2026-04-20 09:48 41.37377 46.37668 19672 ft 404 kts 282°
2026-04-20 09:48 41.38109 46.34070 19136 ft 400 kts 282°
2026-04-20 09:48 41.38829 46.30524 18604 ft 395 kts 282°
2026-04-20 09:49 41.39545 46.26995 18077 ft 391 kts 282°
2026-04-20 09:49 41.40250 46.23514 17551 ft 387 kts 282°
2026-04-20 09:49 41.40938 46.20110 17039 ft 384 kts 282°
2026-04-20 09:49 41.41629 46.16680 16518 ft 381 kts 282°
2026-04-20 09:50 41.42313 46.13284 16009 ft 378 kts 282°
2026-04-20 09:50 41.42989 46.09917 15495 ft 375 kts 282°
2026-04-20 09:50 41.43662 46.06565 14979 ft 373 kts 282°
2026-04-20 09:50 41.44330 46.03236 14473 ft 370 kts 282°
2026-04-20 09:51 41.44991 45.99928 13974 ft 368 kts 282°
2026-04-20 09:51 41.45649 45.96636 13473 ft 367 kts 283°
2026-04-20 09:51 41.46293 45.93407 12973 ft 359 kts 283°
2026-04-20 09:51 41.46921 45.90261 12480 ft 345 kts 283°
2026-04-20 09:52 41.47534 45.87176 12065 ft 343 kts 283°
2026-04-20 09:52 41.48144 45.84102 11610 ft 343 kts 283°
2026-04-20 09:52 41.48752 45.81028 11156 ft 343 kts 283°
2026-04-20 09:52 41.49361 45.77948 10739 ft 341 kts 284°
2026-04-20 09:53 41.49959 45.74922 10595 ft 332 kts 284°
2026-04-20 09:53 41.50538 45.71987 10445 ft 324 kts 284°
2026-04-20 09:53 41.51105 45.69119 10294 ft 316 kts 284°
2026-04-20 09:53 41.51656 45.66316 10164 ft 308 kts 284°
2026-04-20 09:54 41.52185 45.63616 10030 ft 301 kts 284°
2026-04-20 09:54 41.52712 45.60933 9827 ft 296 kts 284°
2026-04-20 09:54 41.53229 45.58291 9595 ft 292 kts 284°
2026-04-20 09:54 41.53739 45.55693 9398 ft 286 kts 284°
2026-04-20 09:55 41.54244 45.53091 8800 ft 292 kts 282°
2026-04-20 09:55 41.54396 45.50417 8398 ft 288 kts 265°
2026-04-20 09:55 41.54183 45.47793 8187 ft 281 kts 263°
2026-04-20 09:55 41.53985 45.45224 7710 ft 276 kts 264°
2026-04-20 09:56 41.53804 45.42687 7339 ft 274 kts 264°
2026-04-20 09:56 41.53628 45.40149 6990 ft 273 kts 264°
2026-04-20 09:56 41.53456 45.37622 6660 ft 273 kts 264°
2026-04-20 09:56 41.53292 45.35137 6331 ft 272 kts 265°
2026-04-20 09:57 41.53126 45.32623 6000 ft 271 kts 264°
2026-04-20 09:57 41.52964 45.30134 5749 ft 267 kts 265°
2026-04-20 09:57 41.52803 45.27709 5622 ft 258 kts 264°
2026-04-20 09:57 41.52647 45.25358 5492 ft 250 kts 264°
2026-04-20 09:58 41.52493 45.23062 5280 ft 246 kts 264°
2026-04-20 09:58 41.52341 45.20813 5080 ft 241 kts 264°
2026-04-20 09:58 41.52191 45.18620 4869 ft 232 kts 264°
2026-04-20 09:58 41.52049 45.16539 4667 ft 218 kts 264°
2026-04-20 09:59 41.52081 45.14578 4469 ft 211 kts 289°
2026-04-20 09:59 41.52861 45.12961 4417 ft 210 kts 311°
2026-04-20 09:59 41.53847 45.11465 4344 ft 217 kts 312°
2026-04-20 09:59 41.54876 45.10075 4180 ft 204 kts 315°
2026-04-20 10:00 41.55860 45.08847 4066 ft 186 kts 316°
2026-04-20 10:00 41.56775 45.07718 3960 ft 173 kts 316°
2026-04-20 10:00 41.57632 45.06650 3704 ft 164 kts 316°
2026-04-20 10:00 41.58488 45.05587 3503 ft 171 kts 316°
2026-04-20 10:01 41.59366 45.04499 3259 ft 172 kts 316°
2026-04-20 10:01 41.60226 45.03427 3050 ft 166 kts 316°
2026-04-20 10:01 41.61067 45.02382 2834 ft 165 kts 316°
2026-04-20 10:01 41.61887 45.01356 2618 ft 155 kts 315°
2026-04-20 10:02 41.62657 45.00406 2398 ft 147 kts 315°
2026-04-20 10:02 41.63385 44.99501 2201 ft 143 kts 315°
2026-04-20 10:02 41.64111 44.98593 2015 ft 142 kts 315°
2026-04-20 10:02 41.64833 44.97706 1840 ft 139 kts 317°
2026-04-20 10:03 41.65544 44.96820 1635 ft 141 kts 316°
2026-04-20 10:03 41.66254 44.95928 1524 ft 133 kts 316°
2026-04-20 10:03 41.66825 44.95223 1521 ft 86 kts 316°
2026-04-20 10:03 41.67151 44.94814 1522 ft 47 kts 317°
2026-04-20 10:04 41.67318 44.94605 1520 ft 21 kts 317°
2026-04-20 10:04 41.67423 44.94474 1522 ft 21 kts 317°
2026-04-20 10:04 41.67497 44.94407 1526 ft 11 kts
2026-04-20 10:04 41.67544 44.94485 1523 ft 11 kts 67°
2026-04-20 10:05 41.67568 44.94585 1526 ft 11 kts 72°
2026-04-20 10:05 41.67592 44.94685 1530 ft 11 kts 71°
2026-04-20 10:05 41.67616 44.94784 1530 ft 11 kts 73°
2026-04-20 10:05 41.67639 44.94885 1529 ft 11 kts 73°
2026-04-20 10:06 41.67661 44.94985 1524 ft 11 kts 76°
2026-04-20 10:06 41.67636 44.95079 1527 ft 11 kts 132°
2026-04-20 10:06 41.67582 44.95155 1524 ft 11 kts 133°
2026-04-20 10:06 41.67530 44.95232 1523 ft 11 kts 131°
2026-04-20 10:07 41.67479 44.95311 1524 ft 11 kts 131°
2026-04-20 10:07 41.67428 44.95391 1527 ft 11 kts 129°
2026-04-20 10:07 41.67376 44.95469 1524 ft 11 kts 133°
2026-04-20 10:07 41.67322 44.95545 1523 ft 11 kts 134°
2026-04-20 10:08 41.67267 44.95621 1530 ft 11 kts 134°
2026-04-20 10:08 41.67213 44.95696 1526 ft 11 kts 134°
2026-04-20 10:08 41.67158 44.95771 1530 ft 11 kts 134°
2026-04-20 10:08 41.67104 44.95846 1523 ft 11 kts 134°
2026-04-20 10:09 41.67061 44.95933 1526 ft 11 kts 122°
2026-04-20 10:09 41.67010 44.96012 1524 ft 11 kts 132°
2026-04-20 10:09 41.66957 44.96088 1524 ft 11 kts 132°
2026-04-20 10:09 41.66906 44.96166 1527 ft 8 kts 129°
2026-04-20 10:10 41.66899 44.96232 1526 ft 8 kts 60°
2026-04-20 10:10 41.66930 44.96278 1531 ft 0 kts 46°